| time (UTC) | temp F | wind direction | speed knots | gust knots | rain 1hr in | rain 24hr in | rain mn in | humidity % | barometer mb |
| 20260506014403 | 57 | 225 | 4.3 | 8.7 | 0.00 | 0.00 | 0.00 | 72 | 1008.8 |
| 20260506014203 | 57 | 226 | 4.3 | 8.7 | 0.00 | 0.00 | 0.00 | 72 | 1008.6 |
| 20260506014003 | 57 | 224 | 4.3 | 8.7 | 0.00 | 0.00 | 0.00 | 72 | 1008.7 |
| 20260506013803 | 57 | 226 | 4.3 | 8.7 | 0.00 | 0.00 | 0.00 | 71 | 1008.6 |
| 20260506013403 | 57 | 231 | 5.2 | 9.6 | 0.00 | 0.00 | 0.00 | 71 | 1008.6 |
| 20260506013203 | 57 | 226 | 5.2 | 9.6 | 0.00 | 0.00 | 0.00 | 71 | 1008.6 |
| 20260506012803 | 58 | 219 | 6.1 | 9.6 | 0.00 | 0.00 | 0.00 | 71 | 1008.5 |
| 20260506012603 | 58 | 218 | 6.1 | 9.6 | 0.00 | 0.00 | 0.00 | 71 | 1008.4 |
| 20260506012403 | 58 | 217 | 6.1 | 9.6 | 0.00 | 0.00 | 0.00 | 71 | 1008.8 |
| 20260506012203 | 58 | 222 | 5.2 | 9.6 | 0.00 | 0.00 | 0.00 | 71 | 1008.3 |
| 20260506012003 | 58 | 227 | 5.2 | 9.6 | 0.00 | 0.00 | 0.00 | 71 | 1008.4 |
| 20260506011803 | 58 | 228 | 5.2 | 9.6 | 0.00 | 0.00 | 0.00 | 70 | 1008.4 |
| 20260506011603 | 58 | 225 | 5.2 | 9.6 | 0.00 | 0.00 | 0.00 | 70 | 1008.4 |
| 20260506011403 | 58 | 222 | 5.2 | 9.6 | 0.00 | 0.00 | 0.00 | 70 | 1008.6 |
| 20260506011203 | 58 | 225 | 5.2 | 11.3 | 0.00 | 0.00 | 0.00 | 70 | 1008.4 |
| 20260506011003 | 58 | 222 | 6.1 | 11.3 | 0.00 | 0.00 | 0.00 | 70 | 1008.4 |
| 20260506010803 | 58 | 218 | 6.1 | 11.3 | 0.00 | 0.00 | 0.00 | 70 | 1008.5 |
| 20260506010603 | 58 | 216 | 6.1 | 12.2 | 0.00 | 0.00 | 0.00 | 70 | 1008.4 |
| 20260506010403 | 58 | 224 | 7.0 | 12.2 | 0.00 | 0.00 | 0.00 | 70 | 1008.4 |
| 20260506010203 | 58 | 226 | 7.0 | 12.2 | 0.00 | 0.00 | 0.00 | 70 | 1008.2 |
| 20260506010003 | 58 | 224 | 6.1 | 12.2 | 0.00 | 0.00 | 0.00 | 70 | 1008.3 |
| 20260506005803 | 58 | 226 | 6.1 | 12.2 | 0.00 | 0.00 | 0.00 | 70 | 1008.3 |
| 20260506005603 | 58 | 229 | 6.1 | 12.2 | 0.00 | 0.00 | 0.00 | 70 | 1008.3 |
| 20260506005403 | 58 | 223 | 6.1 | 12.2 | 0.00 | 0.00 | 0.00 | 69 | 1008.3 |
| 20260506005203 | 58 | 218 | 6.1 | 12.2 | 0.00 | 0.00 | 0.00 | 69 | 1008.5 |
| 20260506005003 | 58 | 224 | 7.0 | 12.2 | 0.00 | 0.00 | 0.00 | 69 | 1008.3 |
| 20260506004803 | 58 | 227 | 7.8 | 12.2 | 0.00 | 0.00 | 0.00 | 69 | 1008.2 |
| 20260506004603 | 58 | 225 | 7.0 | 12.2 | 0.00 | 0.00 | 0.00 | 69 | 1008.4 |
| 20260506004403 | 58 | 230 | 7.8 | 12.2 | 0.00 | 0.00 | 0.00 | 69 | 1008.2 |
| 20260506004203 | 58 | 231 | 7.0 | 12.2 | 0.00 | 0.00 | 0.00 | 69 | 1008.4 |
| 20260506004003 | 58 | 226 | 7.0 | 12.2 | 0.00 | 0.00 | 0.00 | 69 | 1008.3 |
| 20260506003603 | 58 | 226 | 7.0 | 12.2 | 0.00 | 0.00 | 0.00 | 68 | 1008.1 |
| 20260506003203 | 58 | 220 | 6.1 | 12.2 | 0.00 | 0.00 | 0.00 | 68 | 1008.2 |
| 20260506003003 | 58 | 226 | 6.1 | 12.2 | 0.00 | 0.00 | 0.00 | 68 | 1008.2 |
| 20260506002803 | 58 | 225 | 6.1 | 12.2 | 0.00 | 0.00 | 0.00 | 68 | 1008.2 |
| 20260506002603 | 58 | 226 | 6.1 | 13.9 | 0.00 | 0.00 | 0.00 | 68 | 1008.1 |
| 20260506002403 | 58 | 225 | 6.1 | 13.9 | 0.00 | 0.00 | 0.00 | 68 | 1008.1 |
| 20260506002203 | 58 | 230 | 7.0 | 13.9 | 0.00 | 0.00 | 0.00 | 68 | 1008.2 |
| 20260506002003 | 58 | 229 | 7.0 | 13.9 | 0.00 | 0.00 | 0.00 | 68 | 1008.3 |
| 20260506001803 | 58 | 233 | 7.0 | 13.9 | 0.00 | 0.00 | 0.00 | 68 | 1008.0 |
| 20260506001003 | 58 | 234 | 7.0 | 15.6 | 0.00 | 0.00 | 0.00 | 67 | 1008.0 |
| 20260506000803 | 58 | 233 | 7.0 | 15.6 | 0.00 | 0.00 | 0.00 | 67 | 1007.9 |
| 20260506000603 | 58 | 233 | 7.8 | 15.6 | 0.00 | 0.00 | 0.00 | 67 | 1007.9 |
| 20260506000403 | 59 | 233 | 7.8 | 15.6 | 0.00 | 0.00 | 0.00 | 67 | 1008.1 |
| 20260506000204 | 59 | 233 | 7.8 | 15.6 | 0.00 | 0.00 | 0.00 | 67 | 1007.9 |
| 20260506000003 | 58 | 227 | 7.8 | 15.6 | 0.00 | 0.00 | 0.00 | 67 | 1008.0 |
| 20260505235803 | 59 | 222 | 7.8 | 12.2 | 0.00 | 0.00 | 0.00 | 67 | 1008.0 |
| 20260505235603 | 59 | 218 | 7.8 | 14.8 | 0.00 | 0.00 | 0.00 | 67 | 1008.1 |
| 20260505235403 | 59 | 216 | 7.8 | 15.6 | 0.00 | 0.00 | 0.00 | 67 | 1008.0 |
| 20260505235203 | 59 | 218 | 7.8 | 15.6 | 0.00 | 0.00 | 0.00 | 66 | 1007.9 |
| 20260505235003 | 59 | 227 | 7.8 | 15.6 | 0.00 | 0.00 | 0.00 | 66 | 1007.9 |
| 20260505234603 | 59 | 225 | 8.7 | 15.6 | 0.00 | 0.00 | 0.00 | 66 | 1008.0 |
| 20260505234403 | 59 | 223 | 7.8 | 15.6 | 0.00 | 0.00 | 0.00 | 66 | 1008.0 |
| 20260505234203 | 59 | 220 | 7.8 | 14.8 | 0.00 | 0.00 | 0.00 | 66 | 1007.9 |
| 20260505234003 | 59 | 214 | 7.8 | 14.8 | 0.00 | 0.00 | 0.00 | 66 | 1007.8 |
| 20260505233803 | 59 | 209 | 7.8 | 14.8 | 0.00 | 0.00 | 0.00 | 66 | 1007.8 |
| 20260505233603 | 59 | 211 | 7.0 | 13.9 | 0.00 | 0.00 | 0.00 | 66 | 1008.2 |
| 20260505233403 | 59 | 212 | 7.0 | 13.9 | 0.00 | 0.00 | 0.00 | 66 | 1008.0 |
| 20260505233203 | 59 | 211 | 7.8 | 13.9 | 0.00 | 0.00 | 0.00 | 65 | 1008.0 |
| 20260505233003 | 59 | 213 | 7.8 | 13.9 | 0.00 | 0.00 | 0.00 | 65 | 1008.0 |
| 20260505232603 | 59 | 215 | 8.7 | 15.6 | 0.00 | 0.00 | 0.00 | 65 | 1008.0 |
| 20260505232403 | 59 | 217 | 8.7 | 15.6 | 0.00 | 0.00 | 0.00 | 65 | 1007.9 |
| 20260505232003 | 59 | 214 | 7.8 | 15.6 | 0.00 | 0.00 | 0.00 | 65 | 1007.9 |
| 20260505231803 | 60 | 211 | 7.8 | 15.6 | 0.00 | 0.00 | 0.00 | 64 | 1008.0 |
| 20260505231603 | 60 | 215 | 7.8 | 15.6 | 0.00 | 0.00 | 0.00 | 64 | 1007.9 |
| 20260505231403 | 60 | 215 | 7.0 | 15.6 | 0.00 | 0.00 | 0.00 | 64 | 1007.8 |
| 20260505231003 | 60 | 223 | 8.7 | 16.5 | 0.00 | 0.00 | 0.00 | 64 | 1008.1 |
| 20260505230803 | 60 | 224 | 9.6 | 16.5 | 0.00 | 0.00 | 0.00 | 64 | 1008.2 |
| 20260505230603 | 60 | 223 | 9.6 | 16.5 | 0.00 | 0.00 | 0.00 | 64 | 1007.9 |
| 20260505230403 | 60 | 225 | 9.6 | 16.5 | 0.00 | 0.00 | 0.00 | 63 | 1007.9 |
| 20260505230203 | 60 | 218 | 9.6 | 16.5 | 0.00 | 0.00 | 0.00 | 64 | 1008.0 |
| 20260505230003 | 60 | 220 | 8.7 | 18.2 | 0.00 | 0.00 | 0.00 | 64 | 1008.1 |
| 20260505225803 | 60 | 218 | 7.8 | 18.2 | 0.00 | 0.00 | 0.00 | 63 | 1007.9 |
| 20260505225603 | 60 | 218 | 8.7 | 18.2 | 0.00 | 0.00 | 0.00 | 63 | 1007.9 |
| 20260505225403 | 60 | 215 | 8.7 | 18.2 | 0.00 | 0.00 | 0.00 | 63 | 1008.0 |
| 20260505225203 | 60 | 223 | 7.8 | 18.2 | 0.00 | 0.00 | 0.00 | 63 | 1008.0 |
| 20260505225003 | 60 | 220 | 7.8 | 18.2 | 0.00 | 0.00 | 0.00 | 63 | 1007.8 |
| 20260505224803 | 60 | 225 | 7.8 | 16.5 | 0.00 | 0.00 | 0.00 | 63 | 1008.2 |
| 20260505224603 | 60 | 224 | 7.8 | 16.5 | 0.00 | 0.00 | 0.00 | 63 | 1008.0 |
| 20260505224403 | 60 | 220 | 7.8 | 16.5 | 0.00 | 0.00 | 0.00 | 62 | 1008.0 |
| 20260505224203 | 60 | 217 | 8.7 | 16.5 | 0.00 | 0.00 | 0.00 | 62 | 1008.0 |
| 20260505224003 | 60 | 225 | 8.7 | 16.5 | 0.00 | 0.00 | 0.00 | 62 | 1008.0 |
| 20260505223803 | 60 | 221 | 8.7 | 15.6 | 0.00 | 0.00 | 0.00 | 62 | 1008.0 |
| 20260505223603 | 60 | 227 | 9.6 | 16.5 | 0.00 | 0.00 | 0.00 | 62 | 1007.8 |
| 20260505223403 | 60 | 236 | 9.6 | 17.4 | 0.00 | 0.00 | 0.00 | 62 | 1008.0 |
| 20260505223203 | 60 | 233 | 9.6 | 18.2 | 0.00 | 0.00 | 0.00 | 62 | 1007.8 |
| 20260505222603 | 61 | 233 | 8.7 | 18.2 | 0.00 | 0.00 | 0.00 | 61 | 1008.0 |
| 20260505222403 | 61 | 233 | 8.7 | 18.2 | 0.00 | 0.00 | 0.00 | 61 | 1007.9 |
| 20260505222003 | 61 | 235 | 7.8 | 17.4 | 0.00 | 0.00 | 0.00 | 61 | 1007.7 |
| 20260505221803 | 61 | 231 | 7.8 | 17.4 | 0.00 | 0.00 | 0.00 | 61 | 1007.8 |
| 20260505221603 | 61 | 230 | 9.6 | 17.4 | 0.00 | 0.00 | 0.00 | 61 | 1007.7 |
| 20260505221203 | 61 | 233 | 10.4 | 16.5 | 0.00 | 0.00 | 0.00 | 61 | 1007.9 |
| 20260505221003 | 61 | 230 | 10.4 | 16.5 | 0.00 | 0.00 | 0.00 | 60 | 1007.7 |
| 20260505220803 | 61 | 231 | 9.6 | 16.5 | 0.00 | 0.00 | 0.00 | 60 | 1007.7 |
| 20260505220603 | 61 | 233 | 9.6 | 17.4 | 0.00 | 0.00 | 0.00 | 60 | 1007.5 |
| 20260505220403 | 61 | 233 | 8.7 | 17.4 | 0.00 | 0.00 | 0.00 | 60 | 1007.7 |
| 20260505220203 | 61 | 232 | 7.8 | 17.4 | 0.00 | 0.00 | 0.00 | 60 | 1007.7 |
| 20260505220012 | 61 | 237 | 7.8 | 18.2 | 0.00 | 0.00 | 0.00 | 60 | 1007.6 |
| 20260505215603 | 61 | 237 | 7.8 | 18.2 | 0.00 | 0.00 | 0.00 | 60 | 1007.5 |
| 20260505215403 | 61 | 239 | 9.6 | 18.2 | 0.00 | 0.00 | 0.00 | 60 | 1007.4 |
| 20260505215203 | 61 | 232 | 9.6 | 18.2 | 0.00 | 0.00 | 0.00 | 59 | 1007.5 |
| 20260505215003 | 61 | 223 | 9.6 | 18.2 | 0.00 | 0.00 | 0.00 | 59 | 1007.5 |
| 20260505214803 | 61 | 221 | 10.4 | 16.5 | 0.00 | 0.00 | 0.00 | 59 | 1007.6 |
| 20260505214403 | 62 | 217 | 10.4 | 18.2 | 0.00 | 0.00 | 0.00 | 59 | 1007.4 |
| 20260505214203 | 62 | 218 | 10.4 | 18.2 | 0.00 | 0.00 | 0.00 | 59 | 1007.4 |
| 20260505213803 | 62 | 221 | 11.3 | 21.7 | 0.00 | 0.00 | 0.00 | 59 | 1007.5 |
| 20260505213603 | 62 | 222 | 12.2 | 21.7 | 0.00 | 0.00 | 0.00 | 58 | 1007.7 |
| 20260505213403 | 62 | 223 | 11.3 | 21.7 | 0.00 | 0.00 | 0.00 | 58 | 1007.7 |
| 20260505213203 | 62 | 225 | 11.3 | 21.7 | 0.00 | 0.00 | 0.00 | 58 | 1007.5 |
| 20260505213003 | 62 | 231 | 12.2 | 21.7 | 0.00 | 0.00 | 0.00 | 58 | 1007.5 |
| 20260505212803 | 62 | 226 | 12.2 | 21.7 | 0.00 | 0.00 | 0.00 | 58 | 1007.4 |
| 20260505212603 | 62 | 221 | 13.0 | 20.9 | 0.00 | 0.00 | 0.00 | 58 | 1007.3 |
| 20260505212403 | 62 | 214 | 13.0 | 20.9 | 0.00 | 0.00 | 0.00 | 58 | 1007.3 |
| 20260505212203 | 62 | 212 | 12.2 | 20.9 | 0.00 | 0.00 | 0.00 | 57 | 1007.3 |
| 20260505212003 | 62 | 211 | 13.0 | 20.9 | 0.00 | 0.00 | 0.00 | 57 | 1007.1 |
| 20260505211803 | 62 | 208 | 12.2 | 20.9 | 0.00 | 0.00 | 0.00 | 57 | 1007.2 |
| 20260505211603 | 62 | 211 | 11.3 | 20.9 | 0.00 | 0.00 | 0.00 | 57 | 1007.2 |
| 20260505211403 | 62 | 219 | 10.4 | 20.9 | 0.00 | 0.00 | 0.00 | 57 | 1007.4 |
| 20260505211203 | 62 | 223 | 10.4 | 24.3 | 0.00 | 0.00 | 0.00 | 57 | 1007.5 |
| 20260505211003 | 62 | 227 | 10.4 | 24.3 | 0.00 | 0.00 | 0.00 | 56 | 1007.4 |
| 20260505210203 | 63 | 225 | 11.3 | 24.3 | 0.00 | 0.00 | 0.00 | 55 | 1007.3 |
| 20260505210003 | 63 | 215 | 12.2 | 21.7 | 0.00 | 0.00 | 0.00 | 55 | 1007.4 |
| 20260505205803 | 63 | 215 | 12.2 | 21.7 | 0.00 | 0.00 | 0.00 | 55 | 1007.5 |
| 20260505205603 | 63 | 215 | 12.2 | 21.7 | 0.00 | 0.00 | 0.00 | 55 | 1007.3 |
| 20260505205203 | 63 | 213 | 10.4 | 21.7 | 0.00 | 0.00 | 0.00 | 54 | 1007.4 |
| 20260505204803 | 63 | 213 | 8.7 | 20.0 | 0.00 | 0.00 | 0.00 | 55 | 1007.4 |
| 20260505204603 | 63 | 215 | 7.8 | 18.2 | 0.00 | 0.00 | 0.00 | 54 | 1007.5 |
| 20260505204203 | 63 | 218 | 10.4 | 18.2 | 0.00 | 0.00 | 0.00 | 54 | 1007.6 |
| 20260505204003 | 63 | 219 | 10.4 | 18.2 | 0.00 | 0.00 | 0.00 | 54 | 1007.6 |
| 20260505203803 | 63 | 219 | 10.4 | 18.2 | 0.00 | 0.00 | 0.00 | 53 | 1007.8 |
| 20260505203603 | 64 | 227 | 10.4 | 18.2 | 0.00 | 0.00 | 0.00 | 53 | 1007.7 |
| 20260505203403 | 63 | 227 | 10.4 | 20.0 | 0.00 | 0.00 | 0.00 | 53 | 1007.6 |
| 20260505202803 | 64 | 230 | 9.6 | 20.0 | 0.00 | 0.00 | 0.00 | 53 | 1007.4 |
| 20260505202403 | 64 | 225 | 11.3 | 20.9 | 0.00 | 0.00 | 0.00 | 53 | 1007.6 |
| 20260505201803 | 64 | 226 | 12.2 | 20.9 | 0.00 | 0.00 | 0.00 | 52 | 1007.6 |
| 20260505201603 | 64 | 221 | 11.3 | 20.9 | 0.00 | 0.00 | 0.00 | 52 | 1007.5 |
| 20260505201403 | 64 | 227 | 11.3 | 20.9 | 0.00 | 0.00 | 0.00 | 52 | 1007.5 |
| 20260505201203 | 64 | 227 | 11.3 | 21.7 | 0.00 | 0.00 | 0.00 | 52 | 1007.6 |
| 20260505201003 | 64 | 229 | 11.3 | 21.7 | 0.00 | 0.00 | 0.00 | 51 | 1007.6 |
| 20260505200803 | 64 | 231 | 11.3 | 21.7 | 0.00 | 0.00 | 0.00 | 51 | 1007.6 |
| 20260505200603 | 64 | 237 | 11.3 | 21.7 | 0.00 | 0.00 | 0.00 | 51 | 1007.5 |
| 20260505200403 | 64 | 237 | 10.4 | 21.7 | 0.00 | 0.00 | 0.00 | 51 | 1007.7 |
| 20260505195803 | 65 | 242 | 9.6 | 20.0 | 0.00 | 0.00 | 0.00 | 51 | 1007.6 |
| 20260505195603 | 65 | 238 | 9.6 | 20.0 | 0.00 | 0.00 | 0.00 | 51 | 1007.5 |
| 20260505195403 | 65 | 234 | 9.6 | 20.0 | 0.00 | 0.00 | 0.00 | 50 | 1007.6 |
| 20260505195003 | 65 | 225 | 11.3 | 20.0 | 0.00 | 0.00 | 0.00 | 50 | 1007.5 |
| 20260505194803 | 65 | 227 | 11.3 | 20.0 | 0.00 | 0.00 | 0.00 | 50 | 1007.7 |
| 20260505194603 | 65 | 224 | 12.2 | 21.7 | 0.00 | 0.00 | 0.00 | 50 | 1007.8 |
| 20260505194203 | 65 | 226 | 13.9 | 23.5 | 0.00 | 0.00 | 0.00 | 49 | 1007.4 |
| 20260505194003 | 65 | 220 | 13.0 | 26.9 | 0.00 | 0.00 | 0.00 | 49 | 1007.5 |
| 20260505193603 | 65 | 218 | 12.2 | 26.9 | 0.00 | 0.00 | 0.00 | 48 | 1007.4 |
| 20260505193403 | 65 | 214 | 12.2 | 26.9 | 0.00 | 0.00 | 0.00 | 48 | 1007.4 |
| 20260505193203 | 66 | 217 | 10.4 | 26.9 | 0.00 | 0.00 | 0.00 | 48 | 1007.7 |
| 20260505193003 | 66 | 222 | 10.4 | 26.9 | 0.00 | 0.00 | 0.00 | 48 | 1007.4 |
| 20260505192803 | 66 | 224 | 10.4 | 20.0 | 0.00 | 0.00 | 0.00 | 48 | 1007.5 |
| 20260505192603 | 66 | 228 | 11.3 | 20.0 | 0.00 | 0.00 | 0.00 | 48 | 1007.4 |
| 20260505192203 | 66 | 220 | 12.2 | 20.0 | 0.00 | 0.00 | 0.00 | 48 | 1007.6 |
| 20260505192003 | 66 | 221 | 11.3 | 20.0 | 0.00 | 0.00 | 0.00 | 48 | 1007.6 |
| 20260505191803 | 66 | 214 | 11.3 | 19.1 | 0.00 | 0.00 | 0.00 | 47 | 1007.5 |
| 20260505191603 | 66 | 210 | 10.4 | 19.1 | 0.00 | 0.00 | 0.00 | 47 | 1007.7 |
| 20260505191403 | 66 | 215 | 10.4 | 19.1 | 0.00 | 0.00 | 0.00 | 47 | 1007.7 |
| 20260505191203 | 66 | 216 | 10.4 | 18.2 | 0.00 | 0.00 | 0.00 | 48 | 1007.6 |
| 20260505190803 | 66 | 219 | 11.3 | 24.3 | 0.00 | 0.00 | 0.00 | 47 | 1007.7 |
| 20260505190603 | 66 | 226 | 11.3 | 24.3 | 0.00 | 0.00 | 0.00 | 47 | 1007.5 |
| 20260505190403 | 67 | 226 | 11.3 | 24.3 | 0.00 | 0.00 | 0.00 | 47 | 1007.7 |
| 20260505190204 | 67 | 228 | 11.3 | 24.3 | 0.00 | 0.00 | 0.00 | 47 | 1007.5 |
| 20260505190003 | 67 | 227 | 11.3 | 24.3 | 0.00 | 0.00 | 0.00 | 46 | 1007.6 |
| 20260505185803 | 67 | 230 | 11.3 | 24.3 | 0.00 | 0.00 | 0.00 | 46 | 1007.6 |
| 20260505185603 | 67 | 228 | 10.4 | 19.1 | 0.00 | 0.00 | 0.00 | 46 | 1007.4 |
| 20260505185403 | 67 | 226 | 9.6 | 19.1 | 0.00 | 0.00 | 0.00 | 46 | 1007.5 |
| 20260505185203 | 67 | 222 | 9.6 | 19.1 | 0.00 | 0.00 | 0.00 | 46 | 1007.6 |
| 20260505184803 | 67 | 219 | 8.7 | 18.2 | 0.00 | 0.00 | 0.00 | 47 | 1007.6 |
| 20260505184603 | 67 | 214 | 9.6 | 18.2 | 0.00 | 0.00 | 0.00 | 47 | 1007.6 |
| 20260505184403 | 67 | 219 | 10.4 | 19.1 | 0.00 | 0.00 | 0.00 | 47 | 1007.4 |
| 20260505184003 | 67 | 215 | 11.3 | 20.9 | 0.00 | 0.00 | 0.00 | 47 | 1007.5 |
| 20260505183803 | 67 | 217 | 11.3 | 20.9 | 0.00 | 0.00 | 0.00 | 47 | 1007.4 |
| 20260505183603 | 67 | 216 | 12.2 | 20.9 | 0.00 | 0.00 | 0.00 | 46 | 1007.5 |
| 20260505183403 | 67 | 213 | 12.2 | 20.9 | 0.00 | 0.00 | 0.00 | 46 | 1007.5 |
| 20260505183203 | 67 | 216 | 12.2 | 20.9 | 0.00 | 0.00 | 0.00 | 47 | 1007.4 |
| 20260505183003 | 67 | 215 | 13.0 | 20.0 | 0.00 | 0.00 | 0.00 | 47 | 1007.5 |
| 20260505182803 | 67 | 212 | 12.2 | 20.0 | 0.00 | 0.00 | 0.00 | 46 | 1007.5 |
| 20260505182603 | 67 | 213 | 12.2 | 20.0 | 0.00 | 0.00 | 0.00 | 46 | 1007.4 |
| 20260505182403 | 67 | 217 | 12.2 | 20.0 | 0.00 | 0.00 | 0.00 | 46 | 1007.6 |
| 20260505182003 | 67 | 222 | 11.3 | 20.9 | 0.00 | 0.00 | 0.00 | 46 | 1007.4 |
| 20260505181803 | 68 | 221 | 10.4 | 20.9 | 0.00 | 0.00 | 0.00 | 46 | 1007.5 |
| 20260505181603 | 68 | 223 | 10.4 | 20.9 | 0.00 | 0.00 | 0.00 | 46 | 1007.5 |
| 20260505181203 | 68 | 228 | 11.3 | 20.9 | 0.00 | 0.00 | 0.00 | 46 | 1007.6 |
| 20260505181003 | 68 | 225 | 10.4 | 20.9 | 0.00 | 0.00 | 0.00 | 46 | 1007.5 |
| 20260505180803 | 68 | 228 | 10.4 | 20.0 | 0.00 | 0.00 | 0.00 | 46 | 1007.3 |
| 20260505180403 | 68 | 231 | 9.6 | 20.0 | 0.00 | 0.00 | 0.00 | 46 | 1007.5 |
| 20260505180203 | 68 | 230 | 8.7 | 20.0 | 0.00 | 0.00 | 0.00 | 46 | 1007.4 |
| 20260505180003 | 68 | 228 | 9.6 | 20.0 | 0.00 | 0.00 | 0.00 | 46 | 1007.5 |
| 20260505175803 | 68 | 229 | 10.4 | 20.0 | 0.00 | 0.00 | 0.00 | 46 | 1007.5 |
| 20260505175603 | 68 | 223 | 9.6 | 20.0 | 0.00 | 0.00 | 0.00 | 46 | 1007.4 |
| 20260505175203 | 68 | 225 | 10.4 | 20.0 | 0.00 | 0.00 | 0.00 | 46 | 1007.6 |
| 20260505175003 | 68 | 228 | 10.4 | 21.7 | 0.00 | 0.00 | 0.00 | 46 | 1007.4 |
| 20260505174803 | 68 | 226 | 11.3 | 21.7 | 0.00 | 0.00 | 0.00 | 46 | 1007.6 |
| 20260505174603 | 68 | 231 | 11.3 | 21.7 | 0.00 | 0.00 | 0.00 | 46 | 1007.8 |
| 20260505174203 | 68 | 225 | 12.2 | 21.7 | 0.00 | 0.00 | 0.00 | 45 | 1007.6 |
| 20260505174003 | 68 | 229 | 12.2 | 21.7 | 0.00 | 0.00 | 0.00 | 45 | 1007.6 |
| 20260505173403 | 69 | 230 | 11.3 | 20.0 | 0.00 | 0.00 | 0.00 | 45 | 1007.5 |
| 20260505173203 | 69 | 238 | 12.2 | 20.0 | 0.00 | 0.00 | 0.00 | 44 | 1007.4 |
| 20260505173003 | 69 | 237 | 11.3 | 20.0 | 0.00 | 0.00 | 0.00 | 44 | 1007.7 |
| 20260505172803 | 69 | 247 | 10.4 | 19.1 | 0.00 | 0.00 | 0.00 | 44 | 1007.7 |
| 20260505172403 | 69 | 249 | 10.4 | 18.2 | 0.00 | 0.00 | 0.00 | 44 | 1007.7 |
| 20260505172203 | 70 | 245 | 9.6 | 18.2 | 0.00 | 0.00 | 0.00 | 44 | 1007.7 |
| 20260505171803 | 70 | 234 | 10.4 | 23.5 | 0.00 | 0.00 | 0.00 | 43 | 1007.8 |
| 20260505171603 | 70 | 234 | 10.4 | 23.5 | 0.00 | 0.00 | 0.00 | 43 | 1007.7 |
| 20260505171403 | 70 | 230 | 10.4 | 23.5 | 0.00 | 0.00 | 0.00 | 43 | 1007.6 |
| 20260505171203 | 70 | 233 | 10.4 | 23.5 | 0.00 | 0.00 | 0.00 | 43 | 1007.9 |
| 20260505170803 | 70 | 234 | 10.4 | 23.5 | 0.00 | 0.00 | 0.00 | 42 | 1007.6 |
| 20260505170603 | 70 | 227 | 10.4 | 20.0 | 0.00 | 0.00 | 0.00 | 42 | 1007.8 |
| 20260505170403 | 70 | 223 | 11.3 | 20.0 | 0.00 | 0.00 | 0.00 | 42 | 1007.9 |
| 20260505170203 | 70 | 222 | 12.2 | 20.0 | 0.00 | 0.00 | 0.00 | 42 | 1007.8 |
| 20260505165803 | 70 | 221 | 13.0 | 20.9 | 0.00 | 0.00 | 0.00 | 41 | 1007.6 |
| 20260505165403 | 70 | 218 | 13.0 | 22.6 | 0.00 | 0.00 | 0.00 | 41 | 1007.8 |
| 20260505165203 | 70 | 218 | 13.0 | 22.6 | 0.00 | 0.00 | 0.00 | 41 | 1007.7 |
| 20260505165003 | 70 | 217 | 12.2 | 22.6 | 0.00 | 0.00 | 0.00 | 41 | 1007.6 |
| 20260505164603 | 70 | 218 | 13.0 | 22.6 | 0.00 | 0.00 | 0.00 | 40 | 1007.7 |
| 20260505164003 | 71 | 230 | 12.2 | 20.0 | 0.00 | 0.00 | 0.00 | 39 | 1007.6 |
| 20260505163803 | 70 | 228 | 12.2 | 21.7 | 0.00 | 0.00 | 0.00 | 39 | 1007.8 |
| 20260505163603 | 71 | 224 | 12.2 | 21.7 | 0.00 | 0.00 | 0.00 | 39 | 1008.0 |
| 20260505163403 | 71 | 223 | 12.2 | 21.7 | 0.00 | 0.00 | 0.00 | 39 | 1008.0 |
| 20260505163203 | 71 | 222 | 12.2 | 21.7 | 0.00 | 0.00 | 0.00 | 39 | 1007.9 |
| 20260505163003 | 71 | 223 | 11.3 | 21.7 | 0.00 | 0.00 | 0.00 | 39 | 1008.1 |
| 20260505162803 | 71 | 227 | 11.3 | 23.5 | 0.00 | 0.00 | 0.00 | 38 | 1008.0 |
| 20260505162603 | 71 | 230 | 11.3 | 23.5 | 0.00 | 0.00 | 0.00 | 38 | 1008.0 |
| 20260505162403 | 71 | 227 | 11.3 | 23.5 | 0.00 | 0.00 | 0.00 | 38 | 1007.9 |
| 20260505162003 | 71 | 227 | 12.2 | 23.5 | 0.00 | 0.00 | 0.00 | 37 | 1008.2 |
| 20260505161603 | 71 | 227 | 13.9 | 23.5 | 0.00 | 0.00 | 0.00 | 37 | 1007.9 |
| 20260505161403 | 71 | 231 | 13.9 | 26.9 | 0.00 | 0.00 | 0.00 | 36 | 1008.3 |
| 20260505161203 | 71 | 227 | 13.9 | 26.9 | 0.00 | 0.00 | 0.00 | 36 | 1008.0 |
| 20260505161003 | 71 | 224 | 13.9 | 26.9 | 0.00 | 0.00 | 0.00 | 36 | 1008.2 |
| 20260505160803 | 71 | 220 | 13.9 | 26.9 | 0.00 | 0.00 | 0.00 | 36 | 1008.3 |
| 20260505160603 | 71 | 218 | 13.9 | 26.9 | 0.00 | 0.00 | 0.00 | 36 | 1008.3 |
| 20260505160403 | 71 | 213 | 13.9 | 26.9 | 0.00 | 0.00 | 0.00 | 36 | 1008.2 |
| 20260505160203 | 71 | 213 | 14.8 | 26.9 | 0.00 | 0.00 | 0.00 | 36 | 1008.5 |
| 20260505153203 | 72 | 220 | 13.9 | 26.9 | 0.00 | 0.00 | 0.00 | 38 | 1008.3 |
| 20260505153003 | 72 | 215 | 13.9 | 26.9 | 0.00 | 0.00 | 0.00 | 38 | 1008.4 |
| 20260505152803 | 72 | 213 | 13.9 | 26.9 | 0.00 | 0.00 | 0.00 | 38 | 1008.3 |
| 20260505152603 | 72 | 214 | 13.9 | 26.9 | 0.00 | 0.00 | 0.00 | 38 | 1008.4 |
| 20260505152403 | 72 | 211 | 13.9 | 26.9 | 0.00 | 0.00 | 0.00 | 38 | 1008.4 |
| 20260505152203 | 72 | 213 | 13.9 | 24.3 | 0.00 | 0.00 | 0.00 | 38 | 1008.4 |
| 20260505152003 | 72 | 223 | 13.0 | 25.2 | 0.00 | 0.00 | 0.00 | 38 | 1008.4 |
| 20260505151603 | 72 | 230 | 13.9 | 25.2 | 0.00 | 0.00 | 0.00 | 38 | 1008.6 |
| 20260505151403 | 72 | 239 | 13.9 | 25.2 | 0.00 | 0.00 | 0.00 | 38 | 1008.5 |
| 20260505151203 | 72 | 239 | 13.9 | 25.2 | 0.00 | 0.00 | 0.00 | 38 | 1008.4 |
| 20260505151003 | 72 | 237 | 13.9 | 25.2 | 0.00 | 0.00 | 0.00 | 37 | 1008.7 |
| 20260505150803 | 72 | 238 | 13.9 | 31.3 | 0.00 | 0.00 | 0.00 | 37 | 1008.6 |
| 20260505150603 | 72 | 230 | 13.9 | 31.3 | 0.00 | 0.00 | 0.00 | 37 | 1008.5 |
| 20260505150403 | 72 | 223 | 13.9 | 31.3 | 0.00 | 0.00 | 0.00 | 37 | 1008.5 |
| 20260505140603 | 76 | 222 | 16.5 | 28.7 | 0.00 | 0.00 | 0.00 | 34 | 1008.4 |
| 20260505140403 | 76 | 228 | 15.6 | 28.7 | 0.00 | 0.00 | 0.00 | 34 | 1008.6 |
| 20260505140203 | 76 | 234 | 16.5 | 27.8 | 0.00 | 0.00 | 0.00 | 33 | 1008.4 |
| 20260505130203 | 79 | 221 | 13.9 | 26.9 | 0.00 | 0.00 | 0.00 | 31 | 1008.3 |
| 20260505125003 | 79 | 226 | 13.0 | 26.9 | 0.00 | 0.00 | 0.00 | 31 | 1008.3 |
| 20260505124403 | 79 | 222 | 13.0 | 24.3 | 0.00 | 0.00 | 0.00 | 30 | 1008.4 |
| 20260505124203 | 79 | 232 | 13.0 | 24.3 | 0.00 | 0.00 | 0.00 | 30 | 1008.5 |
| 20260505123803 | 79 | 242 | 13.0 | 24.3 | 0.00 | 0.00 | 0.00 | 30 | 1008.6 |
| 20260505123603 | 79 | 237 | 13.9 | 24.3 | 0.00 | 0.00 | 0.00 | 30 | 1008.6 |
| 20260505123203 | 79 | 227 | 13.9 | 24.3 | 0.00 | 0.00 | 0.00 | 30 | 1008.6 |
| 20260505122803 | 79 | 224 | 13.0 | 24.3 | 0.00 | 0.00 | 0.00 | 30 | 1008.7 |
| 20260505122603 | 79 | 228 | 13.9 | 24.3 | 0.00 | 0.00 | 0.00 | 30 | 1008.7 |
| 20260505122403 | 79 | 227 | 13.0 | 26.1 | 0.00 | 0.00 | 0.00 | 29 | 1008.7 |
| 20260505122203 | 79 | 221 | 13.0 | 26.1 | 0.00 | 0.00 | 0.00 | 30 | 1008.8 |
| 20260505122003 | 79 | 222 | 13.0 | 26.1 | 0.00 | 0.00 | 0.00 | 30 | 1008.6 |
| 20260505121803 | 79 | 225 | 13.0 | 26.1 | 0.00 | 0.00 | 0.00 | 30 | 1008.8 |
| 20260505121403 | 79 | 224 | 12.2 | 26.1 | 0.00 | 0.00 | 0.00 | 30 | 1008.6 |
| 20260505121203 | 79 | 230 | 12.2 | 26.1 | 0.00 | 0.00 | 0.00 | 30 | 1008.7 |
| 20260505121003 | 79 | 222 | 13.9 | 26.1 | 0.00 | 0.00 | 0.00 | 31 | 1008.7 |
| 20260505120603 | 79 | 220 | 14.8 | 26.1 | 0.00 | 0.00 | 0.00 | 31 | 1008.7 |
| 20260505120403 | 79 | 219 | 14.8 | 26.1 | 0.00 | 0.00 | 0.00 | 30 | 1008.5 |
| 20260505120203 | 80 | 223 | 13.9 | 26.1 | 0.00 | 0.00 | 0.00 | 30 | 1009.0 |
| 20260505115803 | 79 | 222 | 13.9 | 24.3 | 0.00 | 0.00 | 0.00 | 31 | 1008.7 |
| 20260505115603 | 79 | 227 | 13.0 | 24.3 | 0.00 | 0.00 | 0.00 | 30 | 1008.7 |
| 20260505115403 | 79 | 234 | 13.0 | 24.3 | 0.00 | 0.00 | 0.00 | 30 | 1008.8 |
| 20260505115203 | 79 | 234 | 13.0 | 24.3 | 0.00 | 0.00 | 0.00 | 30 | 1008.6 |
| 20260505114404 | 79 | 232 | 13.0 | 22.6 | 0.00 | 0.00 | 0.00 | 28 | 1008.7 |
| 20260505114203 | 79 | 228 | 12.2 | 22.6 | 0.00 | 0.00 | 0.00 | 27 | 1008.8 |
| 20260505114003 | 80 | 229 | 13.0 | 20.9 | 0.00 | 0.00 | 0.00 | 27 | 1008.7 |
| 20260505113803 | 79 | 234 | 12.2 | 20.9 | 0.00 | 0.00 | 0.00 | 28 | 1008.7 |
| 20260505113403 | 79 | 238 | 12.2 | 22.6 | 0.00 | 0.00 | 0.00 | 27 | 1008.9 |
| 20260505113203 | 79 | 239 | 12.2 | 22.6 | 0.00 | 0.00 | 0.00 | 27 | 1008.8 |
| 20260505113003 | 79 | 240 | 12.2 | 22.6 | 0.00 | 0.00 | 0.00 | 28 | 1009.0 |
| 20260505112803 | 79 | 236 | 11.3 | 22.6 | 0.00 | 0.00 | 0.00 | 27 | 1008.8 |
| 20260505112403 | 79 | 228 | 11.3 | 20.0 | 0.00 | 0.00 | 0.00 | 27 | 1009.1 |
| 20260505112208 | 79 | 222 | 11.3 | 20.0 | 0.00 | 0.00 | 0.00 | 27 | 1008.9 |
| 20260505112009 | 79 | 220 | 11.3 | 20.0 | 0.00 | 0.00 | 0.00 | 27 | 1009.1 |
| 20260505111805 | 79 | 224 | 12.2 | 20.0 | 0.00 | 0.00 | 0.00 | 27 | 1009.0 |
| 20260505111603 | 79 | 218 | 13.0 | 20.0 | 0.00 | 0.00 | 0.00 | 27 | 1009.0 |
| 20260505111403 | 78 | 215 | 13.0 | 20.0 | 0.00 | 0.00 | 0.00 | 27 | 1008.9 |
| 20260505111206 | 78 | 212 | 12.2 | 20.9 | 0.00 | 0.00 | 0.00 | 27 | 1009.1 |
| 20260505111003 | 78 | 219 | 13.0 | 20.9 | 0.00 | 0.00 | 0.00 | 28 | 1009.2 |
| 20260505110604 | 78 | 223 | 12.2 | 20.9 | 0.00 | 0.00 | 0.00 | 28 | 1009.3 |
| 20260505110403 | 78 | 222 | 12.2 | 20.9 | 0.00 | 0.00 | 0.00 | 27 | 1009.3 |
| 20260505110203 | 78 | 228 | 13.0 | 20.9 | 0.00 | 0.00 | 0.00 | 27 | 1009.2 |
| 20260505102203 | 74 | 211 | 11.3 | 21.7 | 0.00 | 0.00 | 0.00 | 34 | 1009.8 |
| 20260505102013 | 74 | 204 | 11.3 | 21.7 | 0.00 | 0.00 | 0.00 | 34 | 1009.8 |
| 20260505101822 | 73 | 212 | 11.3 | 21.7 | 0.00 | 0.00 | 0.00 | 35 | 1009.9 |
| 20260505101609 | 73 | 216 | 10.4 | 21.7 | 0.00 | 0.00 | 0.00 | 36 | 1009.8 |
| 20260505101204 | 73 | 225 | 8.7 | 18.2 | 0.00 | 0.00 | 0.00 | 37 | 1009.9 |
| 20260505101003 | 73 | 226 | 9.6 | 18.2 | 0.00 | 0.00 | 0.00 | 37 | 1009.9 |
| 20260505100803 | 73 | 224 | 9.6 | 20.9 | 0.00 | 0.00 | 0.00 | 37 | 1010.1 |
| 20260505100608 | 73 | 216 | 10.4 | 20.9 | 0.00 | 0.00 | 0.00 | 37 | 1009.9 |
| 20260505100406 | 73 | 221 | 10.4 | 20.9 | 0.00 | 0.00 | 0.00 | 37 | 1010.1 |
| 20260505100004 | 73 | 215 | 11.3 | 20.9 | 0.00 | 0.00 | 0.00 | 36 | 1010.0 |
| 20260505095804 | 74 | 216 | 11.3 | 20.9 | 0.00 | 0.00 | 0.00 | 36 | 1010.1 |
| 20260505095606 | 73 | 218 | 11.3 | 20.0 | 0.00 | 0.00 | 0.00 | 37 | 1010.1 |
| 20260505095403 | 73 | 215 | 11.3 | 20.0 | 0.00 | 0.00 | 0.00 | 37 | 1010.1 |
| 20260505095216 | 73 | 211 | 11.3 | 20.0 | 0.00 | 0.00 | 0.00 | 37 | 1010.1 |
| 20260505094805 | 72 | 218 | 10.4 | 20.0 | 0.00 | 0.00 | 0.00 | 38 | 1010.1 |
| 20260505094403 | 72 | 215 | 9.6 | 20.0 | 0.00 | 0.00 | 0.00 | 38 | 1009.9 |
| 20260505094204 | 72 | 217 | 9.6 | 20.0 | 0.00 | 0.00 | 0.00 | 39 | 1009.9 |
| 20260505093805 | 71 | 219 | 9.6 | 17.4 | 0.00 | 0.00 | 0.00 | 40 | 1010.1 |
| 20260505093603 | 71 | 221 | 11.3 | 19.1 | 0.00 | 0.00 | 0.00 | 40 | 1010.0 |
| 20260505093408 | 71 | 221 | 11.3 | 19.1 | 0.00 | 0.00 | 0.00 | 40 | 1010.0 |
| 20260505093204 | 71 | 221 | 11.3 | 19.1 | 0.00 | 0.00 | 0.00 | 40 | 1010.1 |
| 20260505093003 | 71 | 216 | 12.2 | 19.1 | 0.00 | 0.00 | 0.00 | 40 | 1010.2 |
| 20260505092804 | 71 | 211 | 12.2 | 19.1 | 0.00 | 0.00 | 0.00 | 40 | 1010.0 |
| 20260505092603 | 71 | 212 | 12.2 | 19.1 | 0.00 | 0.00 | 0.00 | 40 | 1010.2 |
| 20260505092404 | 70 | 210 | 11.3 | 17.4 | 0.00 | 0.00 | 0.00 | 40 | 1010.1 |
| 20260505092203 | 70 | 215 | 11.3 | 17.4 | 0.00 | 0.00 | 0.00 | 40 | 1010.0 |
| 20260505092003 | 70 | 216 | 11.3 | 17.4 | 0.00 | 0.00 | 0.00 | 40 | 1010.1 |
| 20260505091804 | 71 | 217 | 10.4 | 17.4 | 0.00 | 0.00 | 0.00 | 40 | 1010.2 |
| 20260505091603 | 70 | 224 | 10.4 | 18.2 | 0.00 | 0.00 | 0.00 | 40 | 1010.2 |
| 20260505091406 | 71 | 224 | 10.4 | 21.7 | 0.00 | 0.00 | 0.00 | 39 | 1010.1 |
| 20260505091205 | 71 | 220 | 11.3 | 21.7 | 0.00 | 0.00 | 0.00 | 39 | 1010.3 |
| 20260505091004 | 70 | 218 | 11.3 | 21.7 | 0.00 | 0.00 | 0.00 | 39 | 1010.2 |
| 20260505090808 | 70 | 220 | 11.3 | 21.7 | 0.00 | 0.00 | 0.00 | 38 | 1010.2 |
| 20260505090605 | 70 | 218 | 11.3 | 21.7 | 0.00 | 0.00 | 0.00 | 39 | 1010.3 |
| 20260505090404 | 70 | 220 | 11.3 | 21.7 | 0.00 | 0.00 | 0.00 | 38 | 1010.1 |
| 20260505090003 | 70 | 216 | 10.4 | 20.9 | 0.00 | 0.00 | 0.00 | 39 | 1010.2 |
| 20260505085803 | 70 | 213 | 10.4 | 20.9 | 0.00 | 0.00 | 0.00 | 39 | 1010.3 |
| 20260505085608 | 70 | 209 | 10.4 | 20.9 | 0.00 | 0.00 | 0.00 | 39 | 1010.1 |
| 20260505085403 | 70 | 210 | 10.4 | 21.7 | 0.00 | 0.00 | 0.00 | 38 | 1010.1 |
| 20260505085208 | 70 | 212 | 11.3 | 21.7 | 0.00 | 0.00 | 0.00 | 39 | 1010.0 |
| 20260505085004 | 70 | 209 | 11.3 | 21.7 | 0.00 | 0.00 | 0.00 | 39 | 1010.2 |
| 20260505084809 | 70 | 211 | 12.2 | 21.7 | 0.00 | 0.00 | 0.00 | 39 | 1010.2 |
| 20260505084609 | 70 | 211 | 12.2 | 21.7 | 0.00 | 0.00 | 0.00 | 39 | 1010.2 |
| 20260505084408 | 70 | 211 | 13.0 | 21.7 | 0.00 | 0.00 | 0.00 | 39 | 1010.2 |
| 20260505084215 | 70 | 210 | 13.0 | 22.6 | 0.00 | 0.00 | 0.00 | 38 | 1010.2 |
| 20260505084007 | 70 | 213 | 13.0 | 22.6 | 0.00 | 0.00 | 0.00 | 38 | 1010.2 |
| 20260505083808 | 70 | 214 | 13.0 | 22.6 | 0.00 | 0.00 | 0.00 | 38 | 1010.2 |
| 20260505083603 | 69 | 214 | 13.0 | 22.6 | 0.00 | 0.00 | 0.00 | 38 | 1010.1 |
| 20260505083403 | 70 | 211 | 13.9 | 22.6 | 0.00 | 0.00 | 0.00 | 38 | 1010.3 |
| 20260505083003 | 70 | 209 | 13.9 | 20.0 | 0.00 | 0.00 | 0.00 | 39 | 1010.1 |
| 20260505082804 | 69 | 209 | 13.9 | 20.0 | 0.00 | 0.00 | 0.00 | 39 | 1010.2 |
| 20260505082611 | 70 | 207 | 13.0 | 20.0 | 0.00 | 0.00 | 0.00 | 39 | 1010.3 |
| 20260505082409 | 70 | 212 | 13.0 | 18.2 | 0.00 | 0.00 | 0.00 | 39 | 1010.3 |
| 20260505082208 | 70 | 210 | 12.2 | 18.2 | 0.00 | 0.00 | 0.00 | 39 | 1010.0 |
| 20260505082003 | 71 | 218 | 13.0 | 18.2 | 0.00 | 0.00 | 0.00 | 38 | 1010.1 |
| 20260505081803 | 70 | 218 | 12.2 | 18.2 | 0.00 | 0.00 | 0.00 | 38 | 1010.1 |
| 20260505081603 | 71 | 216 | 12.2 | 18.2 | 0.00 | 0.00 | 0.00 | 38 | 1010.0 |
| 20260505081403 | 71 | 212 | 12.2 | 18.2 | 0.00 | 0.00 | 0.00 | 38 | 1010.2 |
| 20260505081203 | 71 | 212 | 11.3 | 18.2 | 0.00 | 0.00 | 0.00 | 38 | 1010.1 |
| 20260505081003 | 71 | 208 | 11.3 | 18.2 | 0.00 | 0.00 | 0.00 | 39 | 1009.9 |
| 20260505080803 | 70 | 209 | 10.4 | 17.4 | 0.00 | 0.00 | 0.00 | 39 | 1010.0 |
| 20260505080603 | 70 | 212 | 11.3 | 17.4 | 0.00 | 0.00 | 0.00 | 40 | 1010.2 |
| 20260505080403 | 70 | 211 | 10.4 | 17.4 | 0.00 | 0.00 | 0.00 | 40 | 1010.2 |
| 20260505080203 | 70 | 219 | 11.3 | 19.1 | 0.00 | 0.00 | 0.00 | 40 | 1010.2 |
| 20260505080003 | 69 | 217 | 11.3 | 19.1 | 0.00 | 0.00 | 0.00 | 40 | 1010.2 |
| 20260505075603 | 69 | 218 | 10.4 | 19.1 | 0.00 | 0.00 | 0.00 | 39 | 1010.2 |
| 20260505075403 | 69 | 219 | 10.4 | 19.1 | 0.00 | 0.00 | 0.00 | 39 | 1010.1 |
| 20260505075203 | 69 | 214 | 10.4 | 19.1 | 0.00 | 0.00 | 0.00 | 39 | 1010.3 |
| 20260505075003 | 69 | 215 | 10.4 | 17.4 | 0.00 | 0.00 | 0.00 | 39 | 1010.1 |
| 20260505074803 | 69 | 213 | 9.6 | 17.4 | 0.00 | 0.00 | 0.00 | 40 | 1010.4 |
| 20260505074403 | 68 | 211 | 8.7 | 18.2 | 0.00 | 0.00 | 0.00 | 41 | 1010.2 |
| 20260505074203 | 68 | 215 | 9.6 | 18.2 | 0.00 | 0.00 | 0.00 | 42 | 1010.1 |
| 20260505074003 | 68 | 213 | 9.6 | 18.2 | 0.00 | 0.00 | 0.00 | 42 | 1010.4 |
| 20260505073603 | 68 | 219 | 10.4 | 18.2 | 0.00 | 0.00 | 0.00 | 43 | 1010.4 |
| 20260505073403 | 68 | 218 | 10.4 | 18.2 | 0.00 | 0.00 | 0.00 | 42 | 1010.3 |
| 20260505073203 | 68 | 208 | 10.4 | 20.0 | 0.00 | 0.00 | 0.00 | 42 | 1010.3 |
| 20260505073003 | 68 | 212 | 9.6 | 20.0 | 0.00 | 0.00 | 0.00 | 42 | 1010.3 |
| 20260505072803 | 67 | 213 | 8.7 | 20.0 | 0.00 | 0.00 | 0.00 | 43 | 1010.3 |
| 20260505072203 | 67 | 225 | 7.8 | 20.0 | 0.00 | 0.00 | 0.00 | 44 | 1010.5 |
| 20260505072003 | 67 | 228 | 7.0 | 14.8 | 0.00 | 0.00 | 0.00 | 44 | 1010.5 |
| 20260505071603 | 67 | 226 | 7.0 | 14.8 | 0.00 | 0.00 | 0.00 | 44 | 1010.4 |
| 20260505071203 | 66 | 222 | 7.8 | 16.5 | 0.00 | 0.00 | 0.00 | 47 | 1010.6 |
| 20260505071003 | 65 | 217 | 8.7 | 18.2 | 0.00 | 0.00 | 0.00 | 47 | 1010.4 |
| 20260505070803 | 65 | 219 | 9.6 | 18.2 | 0.00 | 0.00 | 0.00 | 47 | 1010.5 |
| 20260505070603 | 65 | 216 | 9.6 | 18.2 | 0.00 | 0.00 | 0.00 | 47 | 1010.5 |
| 20260505070403 | 65 | 216 | 10.4 | 18.2 | 0.00 | 0.00 | 0.00 | 47 | 1010.6 |
| 20260505070203 | 65 | 212 | 10.4 | 18.2 | 0.00 | 0.00 | 0.00 | 47 | 1010.5 |
| 20260505070003 | 65 | 216 | 10.4 | 18.2 | 0.00 | 0.00 | 0.00 | 48 | 1010.6 |
| 20260505065803 | 65 | 206 | 10.4 | 17.4 | 0.00 | 0.00 | 0.00 | 48 | 1010.4 |
| 20260505065603 | 64 | 207 | 10.4 | 17.4 | 0.00 | 0.00 | 0.00 | 48 | 1010.7 |
| 20260505065403 | 64 | 207 | 9.6 | 17.4 | 0.00 | 0.00 | 0.00 | 48 | 1010.4 |
| 20260505065203 | 64 | 211 | 8.7 | 18.2 | 0.00 | 0.00 | 0.00 | 49 | 1010.5 |
| 20260505065003 | 64 | 207 | 9.6 | 18.2 | 0.00 | 0.00 | 0.00 | 49 | 1010.5 |
| 20260505064803 | 63 | 210 | 9.6 | 18.2 | 0.00 | 0.00 | 0.00 | 50 | 1010.5 |
| 20260505064603 | 63 | 211 | 9.6 | 18.2 | 0.00 | 0.00 | 0.00 | 50 | 1010.4 |
| 20260505064403 | 63 | 210 | 8.7 | 18.2 | 0.00 | 0.00 | 0.00 | 50 | 1010.5 |
| 20260505064203 | 62 | 207 | 9.6 | 18.2 | 0.00 | 0.00 | 0.00 | 51 | 1010.7 |
| 20260505064003 | 62 | 207 | 9.6 | 16.5 | 0.00 | 0.00 | 0.00 | 51 | 1010.6 |
| 20260505063803 | 62 | 208 | 9.6 | 16.5 | 0.00 | 0.00 | 0.00 | 51 | 1010.6 |
| 20260505063603 | 62 | 204 | 9.6 | 16.5 | 0.00 | 0.00 | 0.00 | 52 | 1010.6 |
| 20260505063403 | 61 | 208 | 9.6 | 16.5 | 0.00 | 0.00 | 0.00 | 52 | 1010.4 |
| 20260505063203 | 61 | 209 | 10.4 | 16.5 | 0.00 | 0.00 | 0.00 | 52 | 1010.5 |
| 20260505063003 | 61 | 207 | 10.4 | 16.5 | 0.00 | 0.00 | 0.00 | 52 | 1010.5 |
| 20260505062803 | 61 | 208 | 10.4 | 16.5 | 0.00 | 0.00 | 0.00 | 52 | 1010.4 |
| 20260505062403 | 61 | 205 | 9.6 | 17.4 | 0.00 | 0.00 | 0.00 | 52 | 1010.6 |
| 20260505062203 | 61 | 200 | 9.6 | 18.2 | 0.00 | 0.00 | 0.00 | 52 | 1010.6 |
| 20260505062003 | 61 | 199 | 10.4 | 18.2 | 0.00 | 0.00 | 0.00 | 52 | 1010.5 |
| 20260505061803 | 61 | 197 | 10.4 | 18.2 | 0.00 | 0.00 | 0.00 | 53 | 1010.6 |
| 20260505061203 | 60 | 206 | 11.3 | 18.2 | 0.00 | 0.00 | 0.00 | 53 | 1010.5 |
| 20260505061003 | 60 | 205 | 11.3 | 18.2 | 0.00 | 0.00 | 0.00 | 53 | 1010.5 |
| 20260505060803 | 60 | 205 | 11.3 | 20.0 | 0.00 | 0.00 | 0.00 | 54 | 1010.6 |
| 20260505060603 | 60 | 206 | 12.2 | 20.0 | 0.00 | 0.00 | 0.00 | 54 | 1010.7 |
| 20260505060403 | 60 | 206 | 12.2 | 20.0 | 0.00 | 0.00 | 0.00 | 54 | 1010.7 |
| 20260505060203 | 60 | 206 | 12.2 | 20.0 | 0.00 | 0.00 | 0.00 | 54 | 1010.7 |
| 20260505060003 | 60 | 209 | 13.0 | 21.7 | 0.00 | 0.00 | 0.00 | 54 | 1010.5 |
| 20260505055803 | 60 | 210 | 13.0 | 21.7 | 0.00 | 0.00 | 0.00 | 54 | 1010.7 |
| 20260505055603 | 60 | 211 | 12.2 | 21.7 | 0.00 | 0.00 | 0.00 | 55 | 1010.3 |
| 20260505055403 | 60 | 209 | 12.2 | 21.7 | 0.00 | 0.00 | 0.00 | 55 | 1010.5 |
| 20260505055203 | 60 | 209 | 12.2 | 21.7 | 0.00 | 0.00 | 0.00 | 55 | 1010.7 |
| 20260505055003 | 59 | 210 | 11.3 | 21.7 | 0.00 | 0.00 | 0.00 | 56 | 1010.7 |
| 20260505054803 | 59 | 211 | 10.4 | 18.2 | 0.00 | 0.00 | 0.00 | 56 | 1010.5 |
| 20260505054603 | 59 | 209 | 11.3 | 18.2 | 0.00 | 0.00 | 0.00 | 57 | 1010.5 |
| 20260505054403 | 58 | 209 | 11.3 | 18.2 | 0.00 | 0.00 | 0.00 | 57 | 1010.5 |
| 20260505054203 | 58 | 210 | 11.3 | 17.4 | 0.00 | 0.00 | 0.00 | 58 | 1010.5 |
| 20260505053803 | 57 | 208 | 11.3 | 16.5 | 0.00 | 0.00 | 0.00 | 59 | 1010.4 |
| 20260505053603 | 57 | 209 | 11.3 | 16.5 | 0.00 | 0.00 | 0.00 | 59 | 1010.5 |
| 20260505053403 | 57 | 209 | 10.4 | 16.5 | 0.00 | 0.00 | 0.00 | 59 | 1010.3 |
| 20260505053203 | 57 | 209 | 10.4 | 16.5 | 0.00 | 0.00 | 0.00 | 59 | 1010.3 |
| 20260505053003 | 57 | 210 | 10.4 | 16.5 | 0.00 | 0.00 | 0.00 | 59 | 1010.4 |
| 20260505052803 | 57 | 209 | 9.6 | 16.5 | 0.00 | 0.00 | 0.00 | 59 | 1010.5 |
| 20260505052603 | 57 | 207 | 9.6 | 16.5 | 0.00 | 0.00 | 0.00 | 59 | 1010.6 |
| 20260505052403 | 57 | 207 | 10.4 | 16.5 | 0.00 | 0.00 | 0.00 | 59 | 1010.5 |
| 20260505052203 | 57 | 206 | 10.4 | 16.5 | 0.00 | 0.00 | 0.00 | 59 | 1010.4 |
| 20260505051803 | 57 | 205 | 9.6 | 15.6 | 0.00 | 0.00 | 0.00 | 59 | 1010.4 |
| 20260505051603 | 57 | 206 | 9.6 | 14.8 | 0.00 | 0.00 | 0.00 | 59 | 1010.5 |
| 20260505051403 | 57 | 205 | 9.6 | 14.8 | 0.00 | 0.00 | 0.00 | 60 | 1010.5 |
| 20260505051203 | 57 | 205 | 10.4 | 14.8 | 0.00 | 0.00 | 0.00 | 60 | 1010.4 |
| 20260505051003 | 57 | 205 | 9.6 | 18.2 | 0.00 | 0.00 | 0.00 | 60 | 1010.5 |
| 20260505050803 | 57 | 205 | 9.6 | 18.2 | 0.00 | 0.00 | 0.00 | 60 | 1010.6 |
| 20260505050403 | 56 | 208 | 9.6 | 18.2 | 0.00 | 0.00 | 0.00 | 60 | 1010.3 |
| 20260505050203 | 57 | 210 | 9.6 | 18.2 | 0.00 | 0.00 | 0.00 | 60 | 1010.4 |
| 20260505041603 | 53 | 228 | 4.3 | 7.8 | 0.00 | 0.00 | 0.00 | 65 | 1010.6 |
| 20260505041203 | 53 | 232 | 3.5 | 8.7 | 0.00 | 0.00 | 0.00 | 65 | 1010.7 |
| 20260505041003 | 53 | 233 | 3.5 | 10.4 | 0.00 | 0.00 | 0.00 | 65 | 1010.5 |
| 20260505040803 | 53 | 230 | 4.3 | 11.3 | 0.00 | 0.00 | 0.00 | 65 | 1010.7 |
| 20260505040603 | 54 | 229 | 4.3 | 11.3 | 0.00 | 0.00 | 0.00 | 65 | 1010.9 |
| 20260505040403 | 54 | 228 | 4.3 | 11.3 | 0.00 | 0.00 | 0.00 | 65 | 1010.7 |
| 20260505040203 | 54 | 230 | 4.3 | 11.3 | 0.00 | 0.00 | 0.00 | 65 | 1010.7 |
| 20260505040004 | 54 | 228 | 4.3 | 11.3 | 0.00 | 0.00 | 0.00 | 64 | 1010.5 |
| 20260505035803 | 54 | 225 | 4.3 | 11.3 | 0.00 | 0.00 | 0.00 | 64 | 1010.6 |
| 20260505035603 | 54 | 227 | 3.5 | 11.3 | 0.00 | 0.00 | 0.00 | 64 | 1010.6 |
| 20260505035403 | 54 | 226 | 4.3 | 11.3 | 0.00 | 0.00 | 0.00 | 64 | 1010.7 |
| 20260505035203 | 54 | 226 | 4.3 | 11.3 | 0.00 | 0.00 | 0.00 | 64 | 1010.8 |
| 20260505035003 | 54 | 224 | 4.3 | 11.3 | 0.00 | 0.00 | 0.00 | 64 | 1010.5 |
| 20260505034803 | 54 | 223 | 5.2 | 10.4 | 0.00 | 0.00 | 0.00 | 64 | 1010.5 |
| 20260505034403 | 54 | 218 | 6.1 | 9.6 | 0.00 | 0.00 | 0.00 | 63 | 1010.6 |
| 20260505034203 | 54 | 218 | 6.1 | 9.6 | 0.00 | 0.00 | 0.00 | 63 | 1010.6 |
| 20260505034003 | 54 | 216 | 6.1 | 10.4 | 0.00 | 0.00 | 0.00 | 63 | 1010.7 |
| 20260505033803 | 54 | 219 | 6.1 | 10.4 | 0.00 | 0.00 | 0.00 | 63 | 1010.6 |
| 20260505033603 | 54 | 221 | 6.1 | 10.4 | 0.00 | 0.00 | 0.00 | 63 | 1010.6 |
| 20260505033403 | 54 | 221 | 5.2 | 10.4 | 0.00 | 0.00 | 0.00 | 62 | 1010.6 |
| 20260505033203 | 54 | 226 | 5.2 | 10.4 | 0.00 | 0.00 | 0.00 | 62 | 1010.6 |
| 20260505033003 | 54 | 231 | 5.2 | 10.4 | 0.00 | 0.00 | 0.00 | 62 | 1010.6 |
| 20260505032803 | 54 | 234 | 4.3 | 9.6 | 0.00 | 0.00 | 0.00 | 62 | 1010.6 |
| 20260505032603 | 54 | 229 | 4.3 | 9.6 | 0.00 | 0.00 | 0.00 | 62 | 1010.7 |
| 20260505032403 | 55 | 227 | 4.3 | 8.7 | 0.00 | 0.00 | 0.00 | 62 | 1010.4 |
| 20260505032203 | 55 | 220 | 4.3 | 8.7 | 0.00 | 0.00 | 0.00 | 62 | 1010.7 |
| 20260505031803 | 55 | 216 | 4.3 | 9.6 | 0.00 | 0.00 | 0.00 | 61 | 1010.6 |
| 20260505031603 | 55 | 224 | 5.2 | 9.6 | 0.00 | 0.00 | 0.00 | 61 | 1010.7 |
| 20260505031403 | 55 | 224 | 5.2 | 9.6 | 0.00 | 0.00 | 0.00 | 60 | 1010.8 |
| 20260505031203 | 56 | 222 | 5.2 | 9.6 | 0.00 | 0.00 | 0.00 | 60 | 1010.7 |
| 20260505031003 | 56 | 224 | 5.2 | 11.3 | 0.00 | 0.00 | 0.00 | 60 | 1010.6 |
| 20260505030603 | 56 | 216 | 6.1 | 11.3 | 0.00 | 0.00 | 0.00 | 60 | 1010.8 |
| 20260505030403 | 56 | 213 | 6.1 | 11.3 | 0.00 | 0.00 | 0.00 | 60 | 1010.5 |
| 20260505030203 | 56 | 216 | 7.0 | 11.3 | 0.00 | 0.00 | 0.00 | 60 | 1010.6 |
| 20260505025603 | 56 | 214 | 7.0 | 13.0 | 0.00 | 0.00 | 0.00 | 59 | 1010.5 |
| 20260505025403 | 56 | 221 | 7.0 | 13.0 | 0.00 | 0.00 | 0.00 | 59 | 1010.6 |
| 20260505025203 | 56 | 216 | 7.0 | 13.0 | 0.00 | 0.00 | 0.00 | 59 | 1010.6 |
| 20260505025003 | 56 | 214 | 7.0 | 13.0 | 0.00 | 0.00 | 0.00 | 58 | 1010.5 |
| 20260505024603 | 56 | 218 | 7.8 | 13.0 | 0.00 | 0.00 | 0.00 | 58 | 1010.7 |
| 20260505024403 | 56 | 214 | 7.0 | 13.0 | 0.00 | 0.00 | 0.00 | 58 | 1010.7 |
| 20260505024203 | 56 | 216 | 7.0 | 12.2 | 0.00 | 0.00 | 0.00 | 58 | 1010.8 |
| 20260505024003 | 56 | 215 | 7.0 | 12.2 | 0.00 | 0.00 | 0.00 | 58 | 1010.7 |
| 20260505023803 | 56 | 220 | 6.1 | 12.2 | 0.00 | 0.00 | 0.00 | 58 | 1010.8 |
| 20260505023603 | 56 | 220 | 5.2 | 12.2 | 0.00 | 0.00 | 0.00 | 58 | 1010.7 |
| 20260505023403 | 56 | 224 | 5.2 | 12.2 | 0.00 | 0.00 | 0.00 | 58 | 1010.7 |
| 20260505023203 | 56 | 225 | 5.2 | 12.2 | 0.00 | 0.00 | 0.00 | 58 | 1010.8 |
| 20260505023003 | 56 | 230 | 5.2 | 10.4 | 0.00 | 0.00 | 0.00 | 58 | 1010.9 |
| 20260505022803 | 56 | 223 | 5.2 | 10.4 | 0.00 | 0.00 | 0.00 | 58 | 1010.8 |
| 20260505022603 | 56 | 224 | 5.2 | 10.4 | 0.00 | 0.00 | 0.00 | 58 | 1010.6 |
| 20260505022403 | 56 | 221 | 6.1 | 10.4 | 0.00 | 0.00 | 0.00 | 58 | 1010.9 |
| 20260505022203 | 56 | 218 | 5.2 | 10.4 | 0.00 | 0.00 | 0.00 | 58 | 1011.0 |
| 20260505022003 | 56 | 220 | 5.2 | 10.4 | 0.00 | 0.00 | 0.00 | 57 | 1010.8 |
| 20260505021803 | 56 | 229 | 4.3 | 10.4 | 0.00 | 0.00 | 0.00 | 57 | 1010.9 |
| 20260505021603 | 56 | 216 | 4.3 | 10.4 | 0.00 | 0.00 | 0.00 | 58 | 1010.9 |
| 20260505021403 | 56 | 218 | 4.3 | 9.6 | 0.00 | 0.00 | 0.00 | 58 | 1011.0 |
| 20260505021203 | 56 | 222 | 3.5 | 9.6 | 0.00 | 0.00 | 0.00 | 58 | 1011.1 |
| 20260505021003 | 56 | 221 | 3.5 | 9.6 | 0.00 | 0.00 | 0.00 | 58 | 1011.0 |
| 20260505020803 | 56 | 215 | 3.5 | 9.6 | 0.00 | 0.00 | 0.00 | 58 | 1010.9 |
| 20260505020603 | 56 | 227 | 3.5 | 7.0 | 0.00 | 0.00 | 0.00 | 58 | 1011.1 |
| 20260505020403 | 56 | 227 | 2.6 | 7.0 | 0.00 | 0.00 | 0.00 | 58 | 1011.0 |
| 20260505020203 | 56 | 233 | 2.6 | 6.1 | 0.00 | 0.00 | 0.00 | 58 | 1010.8 |
| 20260505020003 | 56 | 232 | 2.6 | 6.1 | 0.00 | 0.00 | 0.00 | 58 | 1011.0 |
| 20260505015803 | 56 | 236 | 2.6 | 6.1 | 0.00 | 0.00 | 0.00 | 58 | 1011.1 |
| 20260505015603 | 56 | 239 | 1.7 | 6.1 | 0.00 | 0.00 | 0.00 | 58 | 1011.0 |
| 20260505015403 | 56 | 243 | 1.7 | 6.1 | 0.00 | 0.00 | 0.00 | 58 | 1011.2 |
| 20260505015203 | 56 | 235 | 1.7 | 6.1 | 0.00 | 0.00 | 0.00 | 58 | 1011.2 |
| 20260505014803 | 56 | 220 | 1.7 | 4.3 | 0.00 | 0.00 | 0.00 | 58 | 1011.1 |
| 20260505014603 | 56 | 218 | 1.7 | 4.3 | 0.00 | 0.00 | 0.00 | 57 | 1011.0 |